Simultaneous Nadir Overpasses (SNOs) Predictions

Prediction of SNOs between METOP-B and TERRA Satellite Orbit:

Table of predicted SNOs for the next 14.0 days since TLE Epoch: 4/27/2017
Index Date (METOP-B) Time (METOP-B) Lat,Lon (METOP-B) SZA (METOP-B ) Date (TERRA) Time (TERRA) Lat,Lon (TERRA) SZA (TERRA ) Distance(km) Time Diff (sec)
1 04/28/2017 15:25:50 81.33, -3.71 69.98 04/28/2017 15:26:09 81.32, -3.88 69.96 3.06 19
2 04/28/2017 16:16:30 -81.33, 164.07 109.98 04/28/2017 16:15:35 -81.33, 164.03 110.02 0.77 55
3 05/01/2017 11:00:11 81.33, 62.87 69.15 05/01/2017 11:00:24 81.34, 62.84 69.16 0.72 13
4 05/01/2017 11:50:52 -81.33,-129.71 110.85 05/01/2017 11:49:51 -81.33,-129.61 110.87 1.59 61
5 05/04/2017 06:34:33 81.33, 129.04 68.30 05/04/2017 06:34:40 81.33, 129.13 68.32 1.51 7
6 05/04/2017 07:25:13 -81.33, -63.12 111.65 05/04/2017 07:24:06 -81.34, -62.93 111.65 3.37 67
7 05/07/2017 01:18:28 -81.21, 22.35 113.20 05/07/2017 01:19:42 -81.01, 22.85 113.25 23.06 74
8 05/07/2017 02:08:53 81.33,-164.43 67.54 05/07/2017 02:08:54 81.34,-164.27 67.56 2.85 1
9 05/07/2017 02:59:33 -81.34, 3.43 112.41 05/07/2017 02:58:21 -81.33, 3.31 112.46 2.10 72
10 05/09/2017 20:52:35 -81.32, 94.30 113.25 05/09/2017 20:53:44 -81.32, 94.18 113.23 2.08 69




NCC Satellite Simultaneous Nadir Overpasses (SNOs) Prediction Service
